RH
94 93 93 92 93 87 71 59 59 48 50 48 43 39 27 47 25 24 28 29 31 34 34 38 34 34 35 31 31 38 42 53 72 50 31 24 28 35 35 79 68 64 74 61
94 93 93 92 93 91 55 37 38 44 53 82 90 33 31 28 27 30 30 35 34 33 37 52 39 38 37 32 33 48 44 62 70 45 35 32 38 32 34 44 81 78 97 66
94 94 93 92 93 93 61 38 88 58 42 34 37 37 36 39 35 33 31 33 33 36 40 36 47 38 36 38 38 67 53 51 66 74 58 44 53 41 38 44 70 60 60 49
94 93 93 93 92 92 66 35 49 44 72 57 39 36 33 37 42 35 32 36 36 38 66 55 44 37 37 36 61 41 48 76 56 50 45 46 50 48 41 42 43 56 47 38
94 94 94 94 92 92 51 58 49 37 38 35 36 50 36 35 35 33 36 39 34 37 49 47 53 43 46 48 38 48 56 89 85 84 58 50 56 52 47 42 38 36 38 39
95 90 95 96 94 86 40 38 37 45 68 51 62 51 34 32 33 41 32 36 42 72 47 43 42 44 44 45 51 61 63 95 100 89 64 76 91 63 49 42 36 37 52 41
95 98 98 95 96 91 58 53 46 75 86 72 47 35 33 35 34 44 38 38 68 42 36 42 51 53 47 44 42 40 70 99 100 100 100 96 47 32 34 41 36 34 32 32
96 98 99 91 92 93 63 50 52 68 100 61 46 42 40 38 40 43 40 36 48 47 52 92 100 84 100 90 41 38 41 99 100 100 89 67 54 41 48 50 49 35 39 46
96 97 96 94 93 93 73 55 58 56 90 91 43 44 41 64 69 66 55 41 40 50 96 100 100 86 71 60 45 43 63 98 100 100 97 92 64 36 33 36 64 58 58 61
97 97 96 95 94 93 78 66 68 59 98 58 50 55 58 45 59 66 58 54 87 53 100 100 100 87 49 66 97 95 99 99 100 95 97 77 47 36 41 80 91 74 71 72
97 97 96 96 96 94 84 77 70 79 79 63 54 50 54 51 55 85 58 68 76 96 100 100 93 100 84 74 56 71 72 93 97 100 100 93 37 44 89 68 65 66 72 76
98 97 97 96 96 94 95 76 80 68 91 67 69 62 56 48 46 61 70 72 61 80 95 99 100 100 100 100 92 47 77 70 76 63 69 49 43 49 50 54 68 70 73 57
98 98 97 97 96 95 92 80 91 95 100 95 84 71 57 50 55 54 83 84 59 61 65 93 100 100 95 100 99 98 66 53 75 75 55 48 50 49 51 53 63 64 58 62
98 98 98 97 97 96 97 97 85 97 100 100 96 62 65 51 53 56 59 64 65 70 79 100 100 100 92 100 84 87 72 65 75 76 63 56 55 54 54 57 56 63 63 69
98 98 98 97 97 96 96 97 94 95 99 100 99 79 53 51 54 56 60 66 73 89 100 100 100 98 97 95 99 94 70 76 89 87 60 70 62 53 51 57 69 63 45 39
98 98 97 98 97 98 99 100 93 96 99 100 100 92 79 58 55 59 63 67 73 86 90 100 99 83 95 100 90 64 49 46 47 60 47 47 48 46 50 64 68 39 34 38
99 98 98 98 98 98 100 97 99 94 96 100 100 99 86 64 63 63 68 70 84 91 98 100 100 99 96 100 98 63 57 49 44 43 50 66 53 60 49 40 32 34 35 45
98 98 99 99 99 99 99 99 99 99 99 100 100 100 100 71 98 99 83 98 98 99 99 99 100 90 100 100 66 52 43 38 36 51 48 46 40 37 32 30 34 39 47 59
97 96 94 96 96 100 100 98 96 98 97 100 100 100 100 68 94 98 100 99 100 98 100 97 94 93 95 71 51 44 40 43 54 50 40 36 38 36 34 35 39 47 59 76
89 86 93 100 100 98 97 96 100 100 100 100 100 95 100 69 100 100 100 100 100 100 95 71 98 84 56 49 44 40 46 38 37 63 58 55 51 40 41 41 44 61 78 78
83 97 100 96 91 97 98 100 100 100 100 100 97 98 92 81 99 100 100 100 100 100 78 90 90 77 55 39 40 39 36 33 33 33 35 34 39 42 49 64 77 94 90 90
84 82 78 88 88 95 98 100 99 100 91 96 97 90 86 99 79 96 96 98 97 91 68 98 84 59 36 40 40 37 32 31 33 34 35 36 37 51 72 76 90 94 97 99
65 77 98 79 88 100 98 94 98 97 100 99 98 99 97 98 97 100 100 96 86 93 98 75 64 49 44 39 31 34 34 59 64 41 41 47 54 68 97 97 97 100 96 93
72 97 94 93 94 79 73 80 100 100 100 100 100 100 99 100 99 99 97 80 89 93 82 73 63 52 42 42 47 47 46 74 76 75 76 82 91 95 99 100 98 95 89 94
76 93 82 87 77 99 99 100 98 100 91 93 97 94 81 99 95 89 89 85 81 73 70 72 69 66 60 60 59 55 88 88 81 69 82 98 100 99 98 99 98 98 96 94
76 91 95 94 99 100 100 100 100 92 94 92 90 89 84 79 81 81 80 73 59 67 95 76 56 61 64 65 73 86 78 83 79 80 87 89 100 100 98 99 100 100 100 96
99 94 100 100 100 100 100 100 95 77 95 96 80 74 70 59 68 67 56 72 79 85 71 58 59 59 62 59 80 88 82 77 77 82 88 92 99 100 99 99 99 97 97 97
Wind_Speed
9 10 12 14 17 25 1 3 1 3 2 3 3 2 4 4 4 2 4 4 6 6 5 6 5 5 6 7 9 8 6 4 5 19 17 3 5 9 8 2 8 9 10 13
7 10 12 12 13 13 6 3 4 2 2 2 1 5 4 5 1 5 3 3 4 3 4 3 4 5 4 7 7 8 10 2 6 8 6 3 14 19 18 14 2 8 7 10
6 8 11 13 13 10 4 1 2 3 3 3 6 5 4 4 3 3 2 2 2 2 4 2 4 7 4 1 6 6 1 6 6 8 15 18 18 23 24 19 12 15 15 27
6 8 9 12 14 14 4 2 2 4 2 1 4 3 1 4 3 1 2 1 2 3 3 6 5 5 9 7 5 2 2 6 11 17 20 20 23 25 25 23 21 19 23 22
6 7 9 12 14 19 3 5 4 1 3 2 2 2 3 3 5 3 3 4 5 4 4 3 12 13 11 8 10 5 3 5 3 9 20 20 20 23 26 26 21 21 21 21
6 7 8 10 13 10 2 1 2 2 3 3 2 2 2 1 4 3 4 7 9 6 8 9 10 12 14 16 17 15 14 3 2 7 10 12 12 16 16 13 17 17 16 21
4 4 6 10 11 9 5 4 5 4 0 2 5 3 4 4 4 4 6 6 4 6 5 10 10 12 17 18 19 15 9 4 3 4 3 7 8 21 24 21 16 17 19 21
4 4 6 7 9 10 4 2 3 3 1 4 7 7 7 8 6 6 8 8 7 7 6 4 7 5 4 7 11 10 6 5 2 4 9 18 15 19 11 18 12 15 11 20
6 6 5 6 7 8 3 1 2 1 5 5 10 10 10 6 6 8 6 6 3 3 3 3 1 3 4 4 8 9 8 9 1 4 14 16 2 17 19 12 15 12 15 19
8 7 6 5 6 7 4 3 1 3 1 5 6 6 6 8 5 5 5 1 1 4 2 2 5 5 8 5 3 3 2 4 6 11 11 10 14 16 12 7 6 17 14 16
10 8 7 6 4 5 3 4 1 3 2 7 8 9 11 8 4 3 2 3 2 2 3 3 5 4 5 5 7 8 9 6 5 5 6 12 3 8 3 12 15 16 15 12
12 11 10 10 8 5 3 4 1 1 3 5 4 9 11 11 15 8 2 5 4 5 4 4 3 3 3 3 10 15 7 8 7 10 8 19 23 25 15 24 17 19 15 18
11 11 11 12 11 10 9 2 1 3 2 4 5 12 11 10 11 7 7 3 6 7 6 3 4 4 4 4 6 5 6 13 14 16 15 25 22 24 21 17 16 19 18 14
12 12 12 12 12 12 10 3 2 2 2 3 6 7 11 7 9 11 11 13 12 8 5 3 4 4 6 5 9 10 7 9 12 23 24 22 20 18 21 20 17 11 14 13
11 12 12 13 14 14 7 4 2 2 4 3 4 4 9 10 10 12 13 12 12 7 4 4 4 4 3 6 4 8 6 14 11 19 21 19 25 22 23 18 10 16 12 12
12 12 14 14 13 12 3 3 6 7 3 1 3 3 4 12 12 12 15 12 11 10 4 4 4 4 5 5 12 9 13 12 15 17 25 27 23 19 15 16 14 13 13 13
11 12 13 14 15 8 4 4 1 1 5 3 3 4 2 6 9 6 8 11 7 6 4 5 3 4 5 3 13 23 17 20 23 25 18 13 14 12 14 9 12 15 13 12
11 11 10 9 11 9 2 2 4 0 4 3 3 4 3 2 1 2 4 2 3 2 2 2 2 2 3 7 16 19 20 21 19 14 12 11 11 14 15 13 13 14 11 10
15 18 16 5 3 2 2 6 6 2 3 3 2 3 3 2 2 1 2 3 1 3 3 4 3 5 10 11 16 16 17 17 12 10 11 10 11 14 13 14 15 13 9 8
10 2 3 3 1 7 6 3 3 4 2 2 3 2 4 4 2 1 1 1 2 3 5 4 5 11 20 20 20 18 7 7 7 4 7 7 9 13 15 15 13 8 6 6
0 2 3 2 5 2 2 2 1 2 3 4 3 6 2 2 2 2 2 1 2 4 5 4 4 5 10 12 3 5 3 4 5 9 10 13 12 13 14 12 7 2 4 5
2 6 5 2 2 1 3 3 3 3 3 5 3 3 2 2 2 3 5 4 4 7 3 2 5 3 6 1 1 4 6 11 12 12 13 14 14 12 8 10 3 2 1 4
2 3 2 3 3 4 4 6 4 4 2 1 1 2 2 2 3 1 2 4 6 4 4 4 4 4 7 4 1 8 10 7 10 16 17 16 14 10 4 8 7 5 4 4
1 2 3 4 4 4 2 2 3 2 1 3 4 2 1 2 1 2 4 5 3 5 6 7 3 6 5 6 5 6 9 6 9 12 13 12 8 6 5 6 5 3 3 2
2 2 4 5 1 5 2 3 3 3 1 1 2 2 2 2 2 3 4 4 7 7 5 3 6 4 4 5 6 8 2 6 7 10 9 8 8 8 9 5 4 4 3 4
1 1 2 2 1 2 1 1 1 3 3 1 1 2 2 5 4 7 9 6 8 5 3 6 7 6 3 4 6 4 6 7 8 9 8 9 8 9 9 6 5 5 5 5
1 3 1 1 2 2 2 2 4 3 3 1 1 4 7 4 7 9 6 7 7 6 7 7 8 10 8 8 4 4 5 7 8 8 6 8 6 5 5 6 5 6 5 4
Wind_Direction
347 344 350 348 347 336 167 292 100 11 263 217 270 54 20 301 73 75 53 23 33 9 353 344 12 344 40 358 337 339 64 289 290 286 278 342 281 276 285 256 283 291 295 281
347 341 345 346 347 9 316 316 70 171 239 89 320 133 84 27 79 34 38 75 25 9 357 347 13 360 93 340 336 28 358 324 306 336 131 167 322 312 305 300 160 216 256 270
339 338 340 340 338 344 301 310 37 1 337 293 143 144 148 110 26 60 35 51 281 325 330 96 304 316 85 194 285 128 17 271 289 283 294 304 313 314 309 302 288 288 266 287
323 332 337 336 332 336 300 22 71 3 91 41 62 24 334 145 151 62 312 183 319 355 30 345 308 306 326 315 136 195 230 260 274 285 296 308 301 289 285 283 288 288 295 290
312 330 336 334 335 333 263 341 349 167 55 341 93 15 20 289 114 323 84 313 339 319 295 269 316 336 334 308 294 260 169 239 265 275 291 293 309 306 289 289 289 283 289 290
308 330 339 337 342 336 330 55 167 314 332 35 348 208 266 309 42 77 333 342 328 355 330 330 332 311 293 282 282 276 274 180 158 273 299 333 290 258 269 274 306 291 302 311
284 325 330 339 345 358 318 35 301 94 116 252 235 253 278 272 254 296 337 331 342 315 320 315 329 308 286 281 276 272 266 130 135 286 340 241 254 314 307 296 303 305 307 301
242 264 293 320 335 350 309 9 312 111 199 257 286 272 289 294 276 277 279 284 58 10 359 7 339 302 350 286 238 256 258 135 180 256 263 283 285 277 331 311 300 301 333 349
218 227 253 284 308 342 300 342 344 95 118 249 254 277 272 258 257 281 273 281 4 333 62 97 224 279 307 302 331 62 49 73 278 286 287 295 351 314 296 307 278 16 340 317
211 218 218 238 286 318 311 1 280 280 138 270 252 249 263 261 269 285 315 172 342 296 84 155 242 238 260 263 200 285 33 314 252 258 266 269 276 292 2 283 332 310 339 336
201 206 205 193 235 293 298 313 275 290 223 275 278 260 261 273 253 258 245 352 238 68 166 199 235 229 251 275 273 284 298 294 252 234 244 280 234 333 336 296 295 340 326 309
195 195 195 191 186 210 248 277 278 306 247 293 354 297 285 283 278 305 291 207 278 177 188 196 233 247 212 253 275 267 255 220 261 259 267 288 302 300 321 318 335 322 297 315
202 199 196 194 183 188 202 272 304 48 43 288 270 250 262 257 273 278 264 264 234 234 225 270 203 225 220 226 241 239 256 263 263 292 273 284 302 301 301 303 322 314 306 339
197 198 197 192 187 188 189 211 224 109 99 181 263 280 258 253 258 243 235 258 270 265 275 236 190 187 194 211 244 256 251 295 271 273 277 286 281 286 304 299 301 334 319 300
204 203 195 194 192 184 194 237 242 214 197 230 240 288 255 240 239 242 244 232 234 241 234 217 222 214 199 231 229 232 221 252 251 270 284 285 284 291 291 318 319 325 310 328
209 207 202 194 187 162 119 283 205 208 192 15 310 299 252 255 241 237 240 227 233 231 223 208 235 195 170 241 266 259 262 274 269 286 291 284 288 326 343 338 320 307 332 333
211 205 201 196 180 165 184 187 29 166 141 109 297 263 350 297 276 264 255 240 229 224 224 214 184 210 194 233 268 276 283 273 276 270 291 338 318 317 304 305 345 333 342 8
198 197 190 189 147 114 98 7 38 31 107 103 206 266 328 246 209 254 343 346 354 271 240 12 183 273 180 246 255 274 278 276 281 356 325 314 351 344 333 347 342 326 353 0
107 108 109 98 55 126 122 115 73 31 111 174 191 206 192 197 104 90 356 34 300 297 250 203 174 213 228 248 268 269 290 310 347 327 341 349 353 331 329 333 332 336 344 337
138 117 69 78 73 118 132 36 31 20 12 89 220 239 202 203 142 144 325 56 248 251 244 233 214 250 264 273 274 277 13 2 350 12 340 343 332 330 331 328 326 341 349 312
322 104 78 112 147 203 94 152 206 161 234 188 227 204 172 156 134 178 216 249 225 251 253 234 240 247 244 262 300 40 6 353 343 348 349 332 326 321 322 323 328 27 313 306
55 103 108 137 205 174 191 197 170 234 242 162 175 188 210 86 268 202 175 233 208 253 346 288 256 270 261 45 326 309 358 357 351 341 323 312 309 315 328 313 297 261 287 279
161 97 80 203 163 205 220 190 197 196 96 97 35 70 60 111 39 296 284 246 242 335 240 245 260 263 205 221 346 21 358 18 350 319 307 304 304 315 318 301 291 285 251 229
208 147 187 225 171 243 203 292 60 69 99 103 111 100 106 120 202 229 259 251 278 250 241 248 273 31 43 7 22 337 321 341 292 290 290 287 273 277 295 262 259 246 260 225
172 170 228 213 195 73 42 1 112 103 138 103 99 103 1 124 273 237 278 253 241 229 245 315 23 16 20 355 312 303 286 275 295 304 302 296 286 282 282 239 198 232 245 247
52 336 243 108 64 124 96 30 49 205 104 84 353 126 218 219 225 210 217 240 238 267 12 346 338 326 347 326 294 228 264 274 283 288 282 283 276 265 275 263 202 213 224 230
215 210 359 4 69 45 102 151 216 128 140 196 227 225 225 237 222 221 225 253 287 325 334 322 314 310 312 312 280 259 273 286 288 282 292 299 298 282 247 229 199 213 203 209